User: anonymous   Login
Location: �clusier
(49.9361°N, 2.7869°E)
Time: 19:56:23
(UTC+00:00)
Language:

Cosmos 1626 - Orbit

View from above orbital plane
View from above orbital plane
View from above satellite
View from above satellite

Ground track
Ground track

The orbit data is extracted from the following two-line orbital elements,

1 15494U 85009A   21268.08221836  .00001086  00000-0  42064-4 0  9999
2 15494  82.4770 124.8893 0002357  22.4709 337.6631 15.25085600  6466
Epoch (UTC): 25 September 2021 01:58:23
Eccentricity: 0.0002357
inclination: 82.4770°
perigee height: 489 km
apogee height: 492 km
right ascension of ascending node: 124.8893°
argument of perigee: 22.4709°
revolutions per day: 15.25085600
mean anomaly at epoch: 337.6631°
orbit number at epoch: 646

The dashed part of the orbit path shows where the satellite is in the earth's shadow,  

DLR